Time,TemperatureF,DewpointF,PressureIn,WindDirection,WindDirectionDegrees,WindSpeedMPH,WindSpeedGustMPH,Humidity,HourlyPrecipIn,Conditions,Clouds,dailyrainin,SoftwareType,DateUTC
2013-09-11 13:45:00,60.4,54.2,29.14,NW,318,1.1,1.1,80,0.00,,FEW,0.00,VWS V14.00,2013-09-11 20:45:00,
2013-09-11 13:50:00,60.4,54.2,29.14,West,272,2.0,2.0,80,0.00,,FEW,0.00,VWS V14.00,2013-09-11 20:50:00,
2013-09-11 13:55:00,84.7,53.3,29.35,NW,318,1.6,1.6,34,0.00,,FEW,0.00,VWS V14.00,2013-09-11 20:55:00,
2013-09-11 14:00:00,84.7,54.1,29.35,WSW,250,1.6,1.6,35,0.00,,FEW,0.00,VWS V14.00,2013-09-11 21:00:00,
2013-09-11 14:05:00,84.4,53.0,29.35,West,272,2.5,2.5,34,0.00,,FEW,0.00,VWS V14.00,2013-09-11 21:05:00,
2013-09-11 14:10:00,83.8,53.3,29.35,North,2,3.6,3.6,35,0.00,,FEW,0.00,VWS V14.00,2013-09-11 21:10:00,
2013-09-11 14:15:00,84.2,53.6,29.35,NNW,340,2.0,2.9,35,0.00,,FEW,0.00,VWS V14.00,2013-09-11 21:15:00,
2013-09-11 14:20:00,84.4,53.0,29.35,WNW,295,2.7,2.7,34,0.00,,FEW,0.00,VWS V14.00,2013-09-11 21:20:00,
2013-09-11 14:25:00,83.8,52.5,29.35,NE,48,2.0,2.2,34,0.00,,FEW,0.00,VWS V14.00,2013-09-11 21:25:00,
2013-09-11 14:30:00,83.8,52.5,29.35,NNW,340,2.0,2.9,34,0.00,,FEW,0.00,VWS V14.00,2013-09-11 21:30:00,
2013-09-11 14:35:00,83.7,53.9,29.35,NW,318,2.7,2.7,36,0.00,,FEW,0.00,VWS V14.00,2013-09-11 21:35:00,
2013-09-11 14:40:00,83.3,52.8,29.35,NW,318,1.6,2.0,35,0.00,,FEW,0.00,VWS V14.00,2013-09-11 21:40:00,
2013-09-11 14:45:00,83.1,52.7,29.35,NW,318,1.6,2.9,35,0.00,,FEW,0.00,VWS V14.00,2013-09-11 21:45:00,
2013-09-11 14:50:00,82.9,53.3,29.35,West,272,1.3,4.3,36,0.00,,FEW,0.00,VWS V14.00,2013-09-11 21:50:00,
2013-09-11 14:55:00,83.1,52.7,29.32,NNE,25,2.2,3.4,35,0.00,,FEW,0.00,VWS V14.00,2013-09-11 21:55:00,
2013-09-11 15:00:00,82.6,52.2,29.32,NW,318,2.5,2.5,35,0.00,,FEW,0.00,VWS V14.00,2013-09-11 22:00:00,
2013-09-11 15:05:00,82.2,51.9,29.32,NNW,340,2.5,2.9,35,0.00,,FEW,0.00,VWS V14.00,2013-09-11 22:05:00,
2013-09-11 15:10:00,81.9,52.3,29.32,NW,318,1.1,2.5,36,0.00,,FEW,0.00,VWS V14.00,2013-09-11 22:10:00,
2013-09-11 15:15:00,82.0,53.2,29.32,NW,318,1.6,2.2,37,0.00,,FEW,0.00,VWS V14.00,2013-09-11 22:15:00,
2013-09-11 15:20:00,81.9,52.3,29.32,NW,318,2.5,2.7,36,0.00,,FEW,0.00,VWS V14.00,2013-09-11 22:20:00,
2013-09-11 15:25:00,81.7,52.9,29.32,West,272,2.9,2.9,37,0.00,,FEW,0.00,VWS V14.00,2013-09-11 22:25:00,
2013-09-11 15:30:00,81.3,52.6,29.32,NNW,340,1.3,2.0,37,0.00,,FEW,0.00,VWS V14.00,2013-09-11 22:30:00,
2013-09-11 15:35:00,81.7,52.9,29.32,West,272,2.7,2.7,37,0.00,,FEW,0.00,VWS V14.00,2013-09-11 22:35:00,
2013-09-11 15:40:00,81.5,53.5,29.29,West,272,1.3,1.6,38,0.00,,FEW,0.00,VWS V14.00,2013-09-11 22:40:00,
2013-09-11 15:45:00,81.1,51.7,29.29,NW,318,1.1,2.5,36,0.00,,FEW,0.00,VWS V14.00,2013-09-11 22:45:00,
2013-09-11 15:50:00,81.0,53.0,29.29,West,272,2.5,2.5,38,0.00,,FEW,0.00,VWS V14.00,2013-09-11 22:50:00,